[[{"header":{"parameterUnit":"m.s-1","parameterCategory":2,"la1":30.2991,"la2":30.254,"lo1":-89.0895,"lo2":-89.0444,"dy":0.0017,"dx":0.0017,"nx":28,"ny":28,"refTime":"2024-10-18T09:00:00:Z","depth":"0","parameterNumber":2,"parameterNumberName":"U-component_of_CURRENTS"},"data":[0,0,0,0,0,0,0,0,0,0,0,0,0,0,0,0,0,0,0,0,0,0,0,0,0,0,0,0,0,0,0,0,0,0,0,0,0,0,0,0,0,0,0,0,0,0,0,0,0,0,0,0,0,0,0,0,0,0,-0.2118,-0.2118,0,-0.212,-0.212,-0.212,-0.2096,-0.2096,-0.2095,-0.2095,-0.2039,-0.2038,-0.2037,0,0,0,0,0,0,0,0,0,0,0,0,0,-0.2051,-0.2052,-0.2118,-0.2118,-0.2118,-0.212,-0.212,-0.212,-0.2096,-0.2096,-0.2095,-0.2095,-0.204,-0.2038,-0.2037,0,0,0,0,0,0,0,0,0,0,0,0,0,-0.2066,-0.2053,-0.2118,-0.211,-0.2109,-0.212,-0.212,-0.212,-0.2096,-0.2096,-0.2095,-0.2095,-0.204,-0.2038,-0.2037,-0.2035,0,0,-0.2031,-0.203,0,0,0,0,0,0,0,0,-0.2065,-0.2068,-0.211,-0.211,-0.211,-0.2111,-0.2076,-0.209,-0.2096,-0.2097,-0.2095,-0.2095,-0.2061,-0.2057,-0.2054,-0.2032,-0.203,-0.2031,-0.203,-0.2029,-0.2029,0,0,0,0,0,0,0,-0.2064,-0.2068,-0.2115,-0.2111,-0.2111,-0.2092,-0.2094,-0.2079,-0.2077,-0.2097,-0.2096,-0.2103,-0.2059,-0.2056,-0.2052,-0.2029,-0.2031,-0.203,-0.2028,-0.2028,-0.2012,-0.2013,0,0,0,0,0,0,-0.2075,-0.2067,-0.2115,-0.2115,-0.209,-0.2094,-0.2096,-0.2108,-0.2079,-0.2076,-0.2103,-0.2102,-0.2059,-0.2055,-0.205,-0.2066,-0.2029,-0.2028,-0.2027,-0.2012,-0.2013,-0.2013,0,0,0,0,0,0,-0.2073,-0.2079,-0.2115,-0.2094,-0.2097,-0.2097,-0.211,-0.2108,-0.2107,-0.2085,-0.2079,-0.2104,-0.2059,-0.2053,-0.2044,-0.2063,-0.2027,-0.2025,-0.2011,-0.2012,-0.2013,-0.2084,0,0,0,0,0,0,-0.2071,-0.2079,-0.2085,-0.2095,-0.2099,-0.2129,-0.2111,-0.2109,-0.2113,-0.2111,-0.2084,-0.2078,-0.2058,-0.2047,-0.2043,-0.2059,-0.2024,-0.201,-0.2011,-0.2013,-0.2081,-0.2087,-0.2093,0,0,0,0,0,-0.2069,-0.2083,-0.2085,-0.2091,-0.211,-0.213,-0.213,-0.2125,-0.2114,-0.2119,-0.2101,-0.2079,-0.2052,-0.2047,-0.2041,-0.2058,-0.2009,-0.2011,-0.2012,-0.2078,-0.2086,-0.2093,0,0,0,0,0,0,-0.2053,-0.2083,-0.2085,-0.2106,-0.2121,-0.2128,-0.213,-0.2129,-0.212,-0.2113,-0.2087,-0.2081,-0.2079,-0.2058,-0.2053,-0.2056,-0.2027,-0.2028,-0.2079,-0.2086,-0.2092,-0.2104,-0.2022,0,0,0,0,0,-0.2056,-0.2073,-0.2098,-0.2112,-0.2122,-0.2127,-0.2131,-0.2132,-0.213,-0.2125,-0.2109,-0.209,-0.2081,-0.2076,-0.2059,-0.2062,-0.2061,-0.2069,-0.2075,-0.208,-0.2086,-0.2099,-0.2107,-0.2018,-0.2018,-0.2018,0,0,-0.2051,-0.2071,-0.2078,-0.2109,-0.2116,-0.2143,-0.2127,-0.2141,-0.2161,-0.212,-0.2129,-0.2108,-0.2085,-0.209,-0.2087,-0.2075,-0.2109,-0.2082,-0.2087,-0.209,-0.2101,-0.211,-0.2118,-0.2019,-0.2019,-0.2019,0,0,-0.2056,-0.2071,-0.209,-0.2112,-0.2136,-0.2147,-0.2156,-0.2169,-0.2172,-0.218,-0.2159,-0.2154,-0.2132,-0.2131,-0.2125,-0.2155,-0.2138,-0.2144,-0.2188,-0.2201,-0.2209,-0.2216,-0.2248,-0.2257,-0.2151,-0.2151,-0.2151,0,-0.2048,-0.2082,-0.2096,-0.2126,-0.2149,-0.2155,-0.2186,-0.2196,-0.2204,-0.2216,-0.2189,-0.2183,-0.2157,-0.2183,-0.2186,-0.2171,-0.2177,-0.2165,-0.2211,-0.2217,-0.2223,-0.2254,-0.2263,-0.2154,-0.2154,-0.2153,-0.2153,0,-0.2072,-0.2103,-0.2117,-0.2162,-0.2187,-0.2213,-0.2243,-0.2261,-0.226,-0.2269,-0.2286,-0.2258,-0.2254,-0.2248,-0.222,-0.2254,-0.2247,-0.2216,-0.2196,-0.2236,-0.2266,-0.2275,-0.2159,-0.2158,-0.2157,-0.2156,0,0,-0.2042,-0.212,-0.2123,-0.216,-0.2212,-0.2238,-0.2281,-0.2327,-0.2361,-0.2355,-0.2396,-0.2372,-0.2352,-0.2343,-0.2318,-0.2327,-0.2369,-0.2287,-0.2286,-0.2327,-0.2415,-0.24,-0.2408,-0.2344,-0.2346,-0.2347,-0.2429,0,-0.2055,-0.2121,-0.2157,-0.2222,-0.2264,-0.2301,-0.2348,-0.2388,-0.2407,-0.2445,-0.2436,-0.2448,-0.2392,-0.2388,-0.239,-0.2367,-0.239,-0.2351,-0.2363,-0.2364,-0.2352,-0.2416,-0.2356,-0.2423,-0.2437,-0.2438,-0.2439,0,-0.2062,-0.2114,-0.2178,-0.2275,-0.2296,-0.2333,-0.2415,-0.2456,-0.2514,-0.2529,-0.2545,-0.2533,-0.2546,-0.2486,-0.2492,-0.2467,-0.2447,-0.2434,-0.2436,-0.24,-0.2363,-0.2379,-0.2436,-0.2433,-0.2451,-0.245,-0.2449,0,-0.2034,-0.2128,-0.2181,-0.2212,-0.2316,-0.2352,-0.2401,-0.2471,-0.2514,-0.2576,-0.2604,-0.2622,-0.2621,-0.2605,-0.2556,-0.2526,-0.257,-0.2526,-0.251,-0.251,-0.245,-0.2442,-0.2509,-0.2546,-0.2546,-0.2546,-0.2546,0,-0.2036,-0.2079,-0.2171,-0.2203,-0.2271,-0.2347,-0.2413,-0.2469,-0.255,-0.2603,-0.263,-0.2662,-0.2643,-0.2654,-0.2611,-0.2592,-0.2613,-0.254,-0.2533,-0.2475,-0.2469,-0.2453,-0.2446,-0.2549,-0.2548,-0.2548,-0.2547,0,-0.1991,-0.2052,-0.212,-0.2227,-0.2256,-0.2299,-0.2405,-0.2458,-0.254,-0.261,-0.2629,-0.2696,-0.2712,-0.271,-0.2699,-0.2659,-0.2618,-0.2635,-0.258,-0.2565,-0.2531,-0.2529,-0.2546,-0.2492,-0.2642,-0.2642,-0.2642,0,-0.1974,-0.2002,-0.2107,-0.2136,-0.2179,-0.2254,-0.2305,-0.2421,-0.248,-0.2616,-0.2646,-0.271,-0.2736,-0.2754,-0.2714,-0.2698,-0.2635,-0.2622,-0.2546,-0.2546,-0.2541,-0.2501,-0.2451,-0.251,-0.2509,-0.2508,-0.2507,0,-0.1931,-0.196,-0.2008,-0.2073,-0.2126,-0.2198,-0.2283,-0.2332,-0.247,-0.2544,-0.2637,-0.2682,-0.2737,-0.2711,-0.2708,-0.266,-0.2574,-0.2605,-0.2613,-0.246,-0.2413,-0.2351,-0.2457,-0.25,-0.2501,-0.2501,-0.2502,-0.2502,-0.1871,-0.1887,-0.1938,-0.1992,-0.2055,-0.2117,-0.213,-0.2246,-0.2328,-0.243,-0.2551,-0.2624,-0.2674,-0.2665,-0.2638,-0.2578,-0.2543,-0.2492,-0.25,-0.2469,-0.2384,-0.2489,-0.2511,-0.2512,-0.2513,-0.2513,-0.2514,0,-0.1791,-0.1815,-0.1856,-0.1907,-0.1927,-0.2001,-0.2088,-0.2089,-0.2141,-0.2306,-0.2388,-0.2552,-0.2553,-0.2594,-0.2585,-0.2506,-0.2414,-0.243,-0.236,-0.2318,-0.2427,-0.2386,-0.2371,-0.2371,-0.2371,-0.2371,-0.2371,-0.2371,-0.1745,-0.1743,-0.1769,-0.1756,-0.1785,-0.1768,-0.1787,-0.182,-0.1908,-0.2038,-0.2201,-0.2382,-0.2445,-0.2652,-0.2589,-0.2483,-0.2397,-0.232,-0.2317,-0.2406,-0.2412,-0.2418,-0.2379,-0.2363,-0.2363,-0.2139,-0.2138,-0.2137]},{"header":{"parameterUnit":"m.s-1","parameterCategory":2,"la1":30.2991,"la2":30.254,"lo1":-89.0895,"lo2":-89.0444,"dy":0.0017,"dx":0.0017,"nx":28,"ny":28,"refTime":"2024-10-18T09:00:00:Z","depth":"0","parameterNumber":3,"parameterNumberName":"V-component_of_CURRENTS"},"data":[0,0,0,0,0,0,0,0,0,0,0,0,0,0,0,0,0,0,0,0,0,0,0,0,0,0,0,0,0,0,0,0,0,0,0,0,0,0,0,0,0,0,0,0,0,0,0,0,0,0,0,0,0,0,0,0,0,0,-0.019,-0.0189,0,-0.0098,-0.0097,-0.0096,-0.0049,-0.0049,-0.0048,-0.0048,0.0042,0.0044,0.0046,0,0,0,0,0,0,0,0,0,0,0,0,0,-0.0269,-0.0268,-0.019,-0.0189,-0.0188,-0.0098,-0.0097,-0.0096,-0.0049,-0.0049,-0.0048,-0.0048,0.0041,0.0044,0.0046,0,0,0,0,0,0,0,0,0,0,0,0,0,-0.0212,-0.0268,-0.019,-0.0153,-0.0149,-0.0099,-0.0097,-0.0096,-0.0049,-0.0049,-0.0048,-0.0048,0.004,0.0043,0.0047,0.0066,0,0,0.0057,0.0059,0,0,0,0,0,0,0,0,-0.0216,-0.0209,-0.016,-0.0156,-0.0151,-0.0085,-0.0092,-0.0042,-0.0049,-0.0087,-0.0048,-0.0048,-0.0001,0.0006,0.0023,0.007,0.0074,0.0058,0.006,0.0061,0.0062,0,0,0,0,0,0,0,-0.022,-0.0213,-0.0154,-0.0158,-0.0153,-0.0122,-0.0115,-0.0082,-0.0046,-0.0084,-0.008,-0.0069,0.0002,0.0019,0.0025,0.0075,0.0058,0.0061,0.0063,0.0064,0.0158,0.0158,0,0,0,0,0,0,-0.0233,-0.0217,-0.0157,-0.0151,-0.0183,-0.0121,-0.0112,-0.0106,-0.0046,-0.0037,-0.007,-0.0067,0.0013,0.0021,0.0029,0.0061,0.0061,0.0065,0.0067,0.0157,0.0158,0.0158,0,0,0,0,0,0,-0.0236,-0.0229,-0.016,-0.0181,-0.017,-0.012,-0.0113,-0.0104,-0.0087,-0.0035,-0.0026,-0.0061,0.0014,0.0024,0.0061,0.0064,0.0066,0.0069,0.0157,0.0157,0.0158,0.0121,0,0,0,0,0,0,-0.0238,-0.0231,-0.0233,-0.0183,-0.017,-0.0136,-0.0113,-0.0103,-0.008,-0.0077,-0.0025,-0.0016,0.0015,0.0056,0.0065,0.0069,0.0072,0.0156,0.0157,0.0158,0.0122,0.012,0.0119,0,0,0,0,0,-0.0242,-0.0247,-0.0233,-0.0226,-0.0174,-0.0136,-0.0127,-0.0091,-0.008,-0.0074,-0.0035,-0.0018,0.0067,0.0059,0.0069,0.0075,0.0156,0.0157,0.0158,0.0122,0.012,0.0119,0,0,0,0,0,0,-0.0284,-0.0241,-0.0225,-0.0218,-0.0182,-0.0128,-0.0121,-0.0095,-0.0059,-0.0058,-0.0011,0.0001,0.0033,0.006,0.0051,0.0104,0.0113,0.0116,0.0083,0.0082,0.008,0.0066,0.0075,0,0,0,0,0,-0.0295,-0.0288,-0.0239,-0.0235,-0.022,-0.0171,-0.0153,-0.0127,-0.0087,-0.0072,-0.0032,0.0008,0.0045,0.0067,0.0101,0.0132,0.0161,0.0143,0.0141,0.014,0.0136,0.0182,0.0184,0.0161,0.0161,0.0161,0,0,-0.0311,-0.0286,-0.0283,-0.0243,-0.0214,-0.0197,-0.016,-0.0137,-0.0119,-0.0068,-0.0037,0.0002,0.0051,0.0086,0.0103,0.011,0.0163,0.0141,0.0139,0.0136,0.0183,0.0185,0.0187,0.0162,0.0161,0.0161,0,0,-0.0342,-0.0318,-0.0323,-0.0295,-0.0255,-0.0222,-0.0218,-0.0164,-0.0138,-0.0101,-0.006,-0.0017,0.0037,0.0079,0.0106,0.0118,0.015,0.0126,0.0113,0.0157,0.016,0.0162,0.0204,0.021,0.0129,0.0129,0.0129,0,-0.0365,-0.0362,-0.0318,-0.0312,-0.0297,-0.0237,-0.0237,-0.0197,-0.0138,-0.0114,-0.01,-0.0006,0.0035,0.0088,0.0094,0.0115,0.0142,0.0113,0.0155,0.0157,0.016,0.0203,0.0211,0.0128,0.0128,0.0128,0.0128,0,-0.0393,-0.0391,-0.0391,-0.0365,-0.034,-0.0331,-0.0272,-0.0242,-0.0204,-0.0159,-0.01,-0.0034,0.0021,0.0044,0.0074,0.0117,0.0131,0.0143,0.0155,0.016,0.0205,0.0214,0.0125,0.0126,0.0126,0.0127,0,0,-0.0447,-0.042,-0.042,-0.0424,-0.037,-0.0358,-0.0321,-0.0271,-0.025,-0.0179,-0.0144,-0.0064,-0.0022,0.0011,0.0062,0.0107,0.0155,0.0129,0.0132,0.0163,0.0252,0.0301,0.0315,0.0171,0.0172,0.0173,0.0276,0,-0.0485,-0.0504,-0.0467,-0.048,-0.0486,-0.0419,-0.0393,-0.0336,-0.0276,-0.0224,-0.0134,-0.0085,-0.0035,-0.001,0.0047,0.0127,0.0175,0.0126,0.0248,0.0252,0.0289,0.0326,0.0373,0.0472,0.0284,0.0286,0.0287,0,-0.0524,-0.0535,-0.056,-0.0548,-0.0543,-0.0533,-0.0484,-0.045,-0.035,-0.0303,-0.0221,-0.0149,-0.0055,-0.0026,0.0124,0.0089,0.0163,0.0226,0.0232,0.0295,0.0317,0.0437,0.0494,0.0679,0.03,0.0299,0.0298,0,-0.0595,-0.0597,-0.0626,-0.0621,-0.0592,-0.0585,-0.0562,-0.0478,-0.0453,-0.035,-0.0318,-0.019,-0.0131,-0.0015,0.0136,0.0124,0.0295,0.0296,0.0413,0.0417,0.0491,0.05,0.0735,0.0389,0.0389,0.0389,0.0388,0,-0.0653,-0.0675,-0.0666,-0.0685,-0.0719,-0.0661,-0.0664,-0.0613,-0.0537,-0.0509,-0.037,-0.0316,-0.0129,0.0002,0.0126,0.0311,0.0295,0.0421,0.0452,0.048,0.0487,0.0676,0.0732,0.0393,0.0392,0.0391,0.039,0,-0.0723,-0.0714,-0.0755,-0.0752,-0.0756,-0.0779,-0.0753,-0.0748,-0.0658,-0.0614,-0.0586,-0.0408,-0.0224,-0.0024,0.0179,0.0299,0.0567,0.0525,0.0549,0.0582,0.085,0.0899,0.1109,0.1172,0.0668,0.0669,0.0671,0,-0.0759,-0.0789,-0.0826,-0.0862,-0.0865,-0.0885,-0.0899,-0.0826,-0.0812,-0.0669,-0.0658,-0.0459,-0.0302,0.0042,0.0299,0.0557,0.0659,0.0728,0.0717,0.0892,0.097,0.0983,0.1021,0.0803,0.0806,0.0808,0.0809,0,-0.0836,-0.0847,-0.0885,-0.097,-0.1007,-0.1041,-0.1047,-0.105,-0.0949,-0.088,-0.075,-0.0604,-0.0227,0.0119,0.0476,0.0622,0.0854,0.0777,0.0963,0.1105,0.1132,0.1198,0.0704,0.0828,0.0826,0.0825,0.0824,0.0823,-0.089,-0.0944,-0.1002,-0.1082,-0.1134,-0.1184,-0.1211,-0.1182,-0.1148,-0.101,-0.0843,-0.0578,-0.0032,0.0496,0.0673,0.1098,0.1015,0.1216,0.1262,0.1262,0.1328,0.0873,0.1026,0.1026,0.1025,0.1025,0.1024,0,-0.0961,-0.1024,-0.1111,-0.1199,-0.1279,-0.1275,-0.1304,-0.1306,-0.1268,-0.1057,-0.0881,-0.0249,0.0276,0.0761,0.1379,0.1592,0.1593,0.169,0.1741,0.1755,0.138,0.1393,0.1629,0.1629,0.1629,0.1628,0.1628,0.1628,-0.1001,-0.1102,-0.1157,-0.1314,-0.1371,-0.1453,-0.1472,-0.1443,-0.1316,-0.0976,-0.0596,-0.0277,0.049,0.1502,0.2061,0.2085,0.2224,0.22,0.226,0.2042,0.2002,0.1963,0.1994,0.2352,0.2353,0.2618,0.2621,0.2623]}],[{"header":{"parameterUnit":"m.s-1","parameterCategory":2,"la1":30.2991,"la2":30.254,"lo1":-89.0895,"lo2":-89.0444,"dy":0.0017,"dx":0.0017,"nx":28,"ny":28,"refTime":"2024-10-18T09:00:00:Z","depth":"2","parameterNumber":2,"parameterNumberName":"U-component_of_CURRENTS"},"data":[0,0,0,0,0,0,0,0,0,0,0,0,0,0,0,0,0,0,0,0,0,0,0,0,0,0,0,0,0,0,0,0,0,0,0,0,0,0,0,0,0,0,0,0,0,0,0,0,0,0,0,0,0,0,0,0,0,0,-0.2001,-0.2001,0,-0.2003,-0.2003,-0.2003,-0.1982,-0.1982,-0.1982,-0.1982,-0.193,-0.1928,-0.1927,0,0,0,0,0,0,0,0,0,0,0,0,0,-0.1938,-0.1939,-0.2001,-0.2001,-0.2002,-0.2003,-0.2003,-0.2003,-0.1982,-0.1982,-0.1982,-0.1982,-0.193,-0.1929,-0.1927,0,0,0,0,0,0,0,0,0,0,0,0,0,-0.1952,-0.1939,-0.2001,-0.1995,-0.1994,-0.2004,-0.2003,-0.2003,-0.1982,-0.1982,-0.1982,-0.1981,-0.193,-0.1929,-0.1927,-0.1923,0,0,-0.1922,-0.1921,0,0,0,0,0,0,0,0,-0.1951,-0.1953,-0.1995,-0.1995,-0.1995,-0.1996,-0.1962,-0.1975,-0.1983,-0.1983,-0.1982,-0.1981,-0.1949,-0.1946,-0.1943,-0.192,-0.1918,-0.1921,-0.192,-0.192,-0.1919,0,0,0,0,0,0,0,-0.195,-0.1953,-0.1998,-0.1996,-0.1996,-0.1978,-0.1979,-0.1964,-0.1964,-0.1983,-0.1982,-0.1989,-0.1948,-0.1944,-0.1941,-0.1917,-0.1921,-0.192,-0.1919,-0.1918,-0.1903,-0.1903,0,0,0,0,0,0,-0.196,-0.1953,-0.1998,-0.1999,-0.1976,-0.198,-0.1981,-0.1993,-0.1965,-0.1962,-0.1989,-0.1988,-0.1948,-0.1943,-0.1939,-0.1956,-0.192,-0.1918,-0.1917,-0.1902,-0.1903,-0.1904,0,0,0,0,0,0,-0.1959,-0.1964,-0.1998,-0.1978,-0.1982,-0.1982,-0.1994,-0.1993,-0.1993,-0.1971,-0.1966,-0.1992,-0.1947,-0.1942,-0.1934,-0.1953,-0.1917,-0.1916,-0.1901,-0.1902,-0.1903,-0.1974,0,0,0,0,0,0,-0.1957,-0.1964,-0.1971,-0.1979,-0.1983,-0.2012,-0.1995,-0.1993,-0.1999,-0.1998,-0.1972,-0.1967,-0.1946,-0.1937,-0.1933,-0.195,-0.1914,-0.1901,-0.1902,-0.1903,-0.1971,-0.1978,-0.1983,0,0,0,0,0,-0.1955,-0.1969,-0.1971,-0.1977,-0.1995,-0.2013,-0.2013,-0.2009,-0.2,-0.2006,-0.1989,-0.1968,-0.1942,-0.1936,-0.1931,-0.1948,-0.19,-0.1902,-0.1903,-0.1969,-0.1976,-0.1983,0,0,0,0,0,0,-0.1941,-0.1969,-0.1971,-0.1992,-0.2006,-0.2011,-0.2015,-0.2014,-0.2006,-0.2,-0.1975,-0.1969,-0.1969,-0.1948,-0.1943,-0.1946,-0.1918,-0.1918,-0.1969,-0.1976,-0.1982,-0.1994,-0.1913,0,0,0,0,0,-0.1944,-0.196,-0.1984,-0.1997,-0.2007,-0.2012,-0.2017,-0.2018,-0.2016,-0.2012,-0.1997,-0.1979,-0.197,-0.1965,-0.1949,-0.1952,-0.1951,-0.1959,-0.1965,-0.197,-0.1976,-0.1989,-0.1997,-0.1909,-0.1909,-0.1909,0,0,-0.194,-0.1958,-0.1966,-0.1995,-0.2002,-0.2027,-0.2013,-0.2027,-0.2047,-0.2007,-0.2018,-0.1997,-0.1974,-0.1979,-0.1977,-0.1965,-0.1999,-0.1972,-0.1977,-0.198,-0.1991,-0.2,-0.2008,-0.191,-0.1909,-0.1909,0,0,-0.1945,-0.196,-0.1978,-0.1999,-0.2023,-0.2033,-0.2042,-0.2055,-0.2059,-0.2068,-0.2048,-0.2044,-0.2022,-0.2021,-0.2014,-0.2044,-0.2028,-0.2034,-0.2078,-0.2091,-0.2099,-0.2105,-0.2137,-0.2146,-0.204,-0.2041,-0.2041,0,-0.1939,-0.1971,-0.1984,-0.2013,-0.2036,-0.2042,-0.2072,-0.2082,-0.209,-0.2102,-0.2078,-0.2072,-0.2046,-0.2072,-0.2075,-0.206,-0.2066,-0.2055,-0.2101,-0.2107,-0.2112,-0.2143,-0.2152,-0.2044,-0.2044,-0.2043,-0.2043,0,-0.1962,-0.1992,-0.2005,-0.2048,-0.2073,-0.2098,-0.2127,-0.2145,-0.2146,-0.2155,-0.2173,-0.2145,-0.2142,-0.2136,-0.2109,-0.2142,-0.2136,-0.2106,-0.2086,-0.2126,-0.2156,-0.2164,-0.2049,-0.2048,-0.2047,-0.2046,0,0,-0.1935,-0.2008,-0.2012,-0.2047,-0.2097,-0.2122,-0.2164,-0.2208,-0.2242,-0.2238,-0.2278,-0.2255,-0.2238,-0.2229,-0.2205,-0.2214,-0.2258,-0.2176,-0.2175,-0.2216,-0.2304,-0.2288,-0.2295,-0.2234,-0.2235,-0.2236,-0.2318,0,-0.1948,-0.2011,-0.2045,-0.2107,-0.2147,-0.2183,-0.2228,-0.2268,-0.2287,-0.2325,-0.2317,-0.2331,-0.2277,-0.2275,-0.2277,-0.2255,-0.2278,-0.2239,-0.2252,-0.2253,-0.2239,-0.2303,-0.2072,-0.2123,-0.2325,-0.2327,-0.2327,0,-0.1955,-0.2005,-0.2066,-0.2158,-0.2178,-0.2214,-0.2293,-0.2334,-0.2391,-0.2407,-0.2425,-0.2414,-0.2429,-0.2371,-0.2378,-0.2354,-0.2335,-0.2322,-0.2325,-0.2288,-0.2251,-0.211,-0.213,-0.2341,-0.2339,-0.2339,-0.2338,0,-0.1929,-0.2018,-0.2069,-0.2099,-0.2198,-0.2233,-0.2282,-0.235,-0.2392,-0.2455,-0.2483,-0.2502,-0.2503,-0.2488,-0.2442,-0.2413,-0.2457,-0.2414,-0.2397,-0.2396,-0.2191,-0.2171,-0.2435,-0.2434,-0.2434,-0.2434,-0.2434,0,-0.1931,-0.1973,-0.2061,-0.2091,-0.2157,-0.223,-0.2295,-0.235,-0.243,-0.2481,-0.251,-0.2542,-0.2525,-0.2537,-0.2496,-0.2478,-0.2499,-0.2426,-0.2419,-0.2212,-0.2194,-0.2361,-0.2351,-0.2437,-0.2436,-0.2436,-0.2435,0,-0.1889,-0.1947,-0.2012,-0.2115,-0.2143,-0.2186,-0.2289,-0.234,-0.2422,-0.2491,-0.2511,-0.2577,-0.2593,-0.2592,-0.2583,-0.2543,-0.2531,-0.2519,-0.2294,-0.226,-0.2455,-0.2448,-0.2525,-0.2525,-0.2525,-0.2525,-0.2525,0,-0.1873,-0.19,-0.2,-0.2029,-0.207,-0.2143,-0.2192,-0.2306,-0.2362,-0.2497,-0.2525,-0.259,-0.261,-0.2628,-0.2556,-0.2532,-0.2556,-0.2326,-0.2228,-0.248,-0.2466,-0.2459,-0.2452,-0.199,-0.1986,-0.1982,-0.1979,0,-0.1831,-0.1859,-0.1905,-0.1968,-0.2019,-0.2087,-0.2169,-0.2217,-0.2352,-0.242,-0.2511,-0.2551,-0.2575,-0.2445,-0.2427,-0.2363,-0.2312,-0.2258,-0.2568,-0.2013,-0.1985,-0.1969,-0.1977,-0.1948,-0.1951,-0.1953,-0.1955,-0.1956,-0.1774,-0.1789,-0.1837,-0.1889,-0.1949,-0.2007,-0.2019,-0.2117,-0.2191,-0.2246,-0.2382,-0.2356,-0.2345,-0.2198,-0.2122,-0.2043,-0.219,-0.206,-0.2066,-0.2077,-0.2011,-0.1985,-0.1937,-0.194,-0.1943,-0.1945,-0.1947,0,-0.169,-0.1718,-0.1757,-0.1804,-0.1816,-0.1895,-0.1977,-0.1943,-0.1969,-0.2047,-0.2087,-0.1894,-0.1849,-0.1844,-0.1688,-0.1695,-0.1623,-0.1615,-0.1491,-0.1524,-0.1552,-0.1455,-0.1237,-0.1235,-0.1233,-0.1231,0,0,-0.1643,-0.1636,-0.1659,-0.1642,-0.1676,-0.1641,-0.1658,-0.1626,-0.1634,-0.1577,-0.1557,-0.1704,-0.1775,-0.1487,-0.1438,-0.1316,-0.1395,-0.1247,-0.181,-0.1694,-0.172,-0.1801,-0.1688,0,0,0,0,0]},{"header":{"parameterUnit":"m.s-1","parameterCategory":2,"la1":30.2991,"la2":30.254,"lo1":-89.0895,"lo2":-89.0444,"dy":0.0017,"dx":0.0017,"nx":28,"ny":28,"refTime":"2024-10-18T09:00:00:Z","depth":"2","parameterNumber":3,"parameterNumberName":"V-component_of_CURRENTS"},"data":[0,0,0,0,0,0,0,0,0,0,0,0,0,0,0,0,0,0,0,0,0,0,0,0,0,0,0,0,0,0,0,0,0,0,0,0,0,0,0,0,0,0,0,0,0,0,0,0,0,0,0,0,0,0,0,0,0,0,-0.0181,-0.018,0,-0.0091,-0.009,-0.0089,-0.0043,-0.0043,-0.0043,-0.0043,0.0045,0.0047,0.0049,0,0,0,0,0,0,0,0,0,0,0,0,0,-0.0258,-0.0257,-0.0181,-0.018,-0.0179,-0.0091,-0.009,-0.0089,-0.0043,-0.0043,-0.0043,-0.0043,0.0044,0.0047,0.0049,0,0,0,0,0,0,0,0,0,0,0,0,0,-0.0203,-0.0257,-0.0181,-0.0145,-0.0141,-0.0092,-0.009,-0.0089,-0.0043,-0.0043,-0.0043,-0.0043,0.0043,0.0046,0.005,0.0069,0,0,0.006,0.0062,0,0,0,0,0,0,0,0,-0.0206,-0.02,-0.0151,-0.0147,-0.0143,-0.0078,-0.0085,-0.0036,-0.0043,-0.008,-0.0043,-0.0043,0.0004,0.001,0.0027,0.0073,0.0076,0.006,0.0062,0.0064,0.0065,0,0,0,0,0,0,0,-0.021,-0.0203,-0.0145,-0.015,-0.0145,-0.0115,-0.0107,-0.0075,-0.004,-0.0077,-0.0073,-0.0063,0.0006,0.0023,0.0029,0.0078,0.006,0.0063,0.0065,0.0067,0.0158,0.0159,0,0,0,0,0,0,-0.0223,-0.0207,-0.0148,-0.0143,-0.0174,-0.0114,-0.0105,-0.0099,-0.004,-0.0031,-0.0063,-0.0061,0.0017,0.0025,0.0032,0.0064,0.0064,0.0067,0.0069,0.0158,0.0158,0.0159,0,0,0,0,0,0,-0.0225,-0.0219,-0.0152,-0.0172,-0.0162,-0.0113,-0.0106,-0.0097,-0.008,-0.003,-0.0021,-0.0055,0.0018,0.0027,0.0064,0.0067,0.0069,0.0072,0.0158,0.0158,0.0159,0.0124,0,0,0,0,0,0,-0.0228,-0.0221,-0.0223,-0.0174,-0.0161,-0.0128,-0.0106,-0.0096,-0.0074,-0.007,-0.002,-0.0012,0.0019,0.0059,0.0067,0.0072,0.0074,0.0157,0.0158,0.0158,0.0124,0.0123,0.0122,0,0,0,0,0,-0.0231,-0.0237,-0.0223,-0.0216,-0.0165,-0.0128,-0.0119,-0.0084,-0.0074,-0.0068,-0.003,-0.0013,0.0069,0.0062,0.0072,0.0078,0.0157,0.0158,0.0158,0.0125,0.0123,0.0122,0,0,0,0,0,0,-0.0273,-0.0231,-0.0216,-0.0208,-0.0173,-0.0121,-0.0113,-0.0088,-0.0053,-0.0052,-0.0006,0.0005,0.0037,0.0064,0.0054,0.0107,0.0115,0.0118,0.0086,0.0085,0.0084,0.0069,0.0077,0,0,0,0,0,-0.0283,-0.0277,-0.0229,-0.0224,-0.021,-0.0163,-0.0144,-0.0119,-0.008,-0.0065,-0.0027,0.0013,0.0049,0.0071,0.0104,0.0134,0.0163,0.0145,0.0143,0.0142,0.0138,0.0184,0.0186,0.0162,0.0162,0.0162,0,0,-0.03,-0.0275,-0.0272,-0.0233,-0.0205,-0.0188,-0.0152,-0.0129,-0.0111,-0.0062,-0.0031,0.0007,0.0055,0.0089,0.0106,0.0113,0.0165,0.0143,0.0142,0.0138,0.0185,0.0187,0.0189,0.0162,0.0162,0.0162,0,0,-0.0329,-0.0306,-0.031,-0.0283,-0.0244,-0.0211,-0.0207,-0.0155,-0.0129,-0.0093,-0.0053,-0.0011,0.0041,0.0084,0.011,0.0122,0.0154,0.013,0.0117,0.0162,0.0164,0.0166,0.0207,0.0214,0.0133,0.0133,0.0133,0,-0.0352,-0.0349,-0.0306,-0.03,-0.0285,-0.0226,-0.0226,-0.0187,-0.0129,-0.0106,-0.0092,0.0,0.004,0.0093,0.0099,0.0119,0.0146,0.0117,0.0159,0.0162,0.0165,0.0207,0.0214,0.0132,0.0132,0.0132,0.0132,0,-0.0378,-0.0376,-0.0377,-0.0351,-0.0326,-0.0318,-0.0259,-0.023,-0.0193,-0.0149,-0.0092,-0.0027,0.0028,0.0051,0.0079,0.0123,0.0136,0.0147,0.0159,0.0165,0.0209,0.0217,0.0129,0.013,0.013,0.0131,0,0,-0.0431,-0.0404,-0.0405,-0.0409,-0.0356,-0.0343,-0.0307,-0.0258,-0.0238,-0.0168,-0.0134,-0.0055,-0.0014,0.0018,0.0068,0.0114,0.0162,0.0134,0.0138,0.0168,0.0257,0.0302,0.0315,0.0178,0.0179,0.018,0.0281,0,-0.0469,-0.0486,-0.045,-0.0462,-0.0468,-0.0403,-0.0378,-0.0322,-0.0264,-0.0213,-0.0124,-0.0076,-0.0026,-0.0002,0.0055,0.0134,0.0181,0.0133,0.0253,0.0257,0.029,0.0326,0.027,0.0359,0.0289,0.029,0.0291,0,-0.0506,-0.0517,-0.0541,-0.053,-0.0525,-0.0515,-0.0467,-0.0434,-0.0336,-0.029,-0.021,-0.0139,-0.0046,-0.0017,0.0131,0.0096,0.0169,0.0232,0.0237,0.0295,0.0317,0.0342,0.0376,0.0305,0.0304,0.0303,0.0302,0,-0.0577,-0.0578,-0.0607,-0.0602,-0.0573,-0.0567,-0.0544,-0.0463,-0.0438,-0.0337,-0.0306,-0.018,-0.0121,-0.0007,0.0142,0.0131,0.03,0.0301,0.0413,0.0416,0.0402,0.0403,0.0394,0.0394,0.0393,0.0393,0.0393,0,-0.0634,-0.0655,-0.0646,-0.0664,-0.0698,-0.0642,-0.0646,-0.0597,-0.0522,-0.0494,-0.0357,-0.0304,-0.0119,0.0009,0.0133,0.0313,0.0299,0.0421,0.0451,0.039,0.0389,0.0365,0.036,0.0397,0.0396,0.0395,0.0395,0,-0.0703,-0.0693,-0.0734,-0.0731,-0.0735,-0.0758,-0.0734,-0.073,-0.0641,-0.0597,-0.057,-0.0395,-0.0215,-0.0018,0.0182,0.03,0.0462,0.0522,0.0443,0.0463,0.0546,0.0539,0.0653,0.0656,0.0658,0.066,0.0661,0,-0.0738,-0.0768,-0.0804,-0.084,-0.0844,-0.0863,-0.0877,-0.0807,-0.0793,-0.0652,-0.0641,-0.0446,-0.0293,0.0044,0.0276,0.0524,0.0521,0.061,0.0585,0.0558,0.0576,0.0565,0.0554,0.0551,0.0551,0.0552,0.0552,0,-0.0814,-0.0825,-0.0863,-0.0947,-0.0984,-0.1017,-0.1023,-0.1027,-0.0927,-0.0859,-0.0731,-0.0589,-0.0239,0.0041,0.0381,0.051,0.0571,0.0627,0.0627,0.0497,0.0471,0.0485,0.0477,0.0556,0.0555,0.0555,0.0555,0.0555,-0.0868,-0.0921,-0.0979,-0.1057,-0.1109,-0.1158,-0.1184,-0.1152,-0.1118,-0.0981,-0.0827,-0.0585,-0.028,0.0195,0.0429,0.0639,0.0641,0.068,0.0674,0.067,0.0643,0.0623,0.0731,0.0731,0.0732,0.0732,0.0733,0,-0.0935,-0.1,-0.1086,-0.1172,-0.1247,-0.1248,-0.1276,-0.1263,-0.1221,-0.1038,-0.087,-0.0528,-0.0175,0.014,0.0478,0.0694,0.0657,0.0715,0.0622,0.0618,0.0614,0.0581,0.0655,0.0655,0.0656,0.0656,0,0,-0.0975,-0.1073,-0.1126,-0.1277,-0.1337,-0.1409,-0.1427,-0.1374,-0.126,-0.1075,-0.0874,-0.0578,-0.018,0.0044,0.0316,0.0491,0.0487,0.0496,0.0535,0.0386,0.038,0.0572,0.0515,0,0,0,0,0]}],[{"header":{"parameterUnit":"m.s-1","parameterCategory":2,"la1":30.2991,"la2":30.254,"lo1":-89.0895,"lo2":-89.0444,"dy":0.0017,"dx":0.0017,"nx":28,"ny":28,"refTime":"2024-10-18T09:00:00:Z","depth":"4","parameterNumber":2,"parameterNumberName":"U-component_of_CURRENTS"},"data":[0,0,0,0,0,0,0,0,0,0,0,0,0,0,0,0,0,0,0,0,0,0,0,0,0,0,0,0,0,0,0,0,0,0,0,0,0,0,0,0,0,0,0,0,0,0,0,0,0,0,0,0,0,0,0,0,0,0,-0.1274,-0.1275,0,-0.1315,-0.1315,-0.1315,-0.1345,-0.1345,-0.1346,-0.1346,-0.1365,-0.1365,-0.1365,0,0,0,0,0,0,0,0,0,0,0,0,0,-0.1194,-0.1195,-0.1274,-0.1275,-0.1276,-0.1315,-0.1315,-0.1315,-0.1345,-0.1345,-0.1346,-0.1346,-0.1365,-0.1365,-0.1365,0,0,0,0,0,0,0,0,0,0,0,0,0,-0.1229,-0.1196,-0.1274,-0.1297,-0.13,-0.1315,-0.1315,-0.1315,-0.1345,-0.1345,-0.1346,-0.1347,-0.1365,-0.1365,-0.1365,-0.1352,0,0,-0.1366,-0.1366,0,0,0,0,0,0,0,0,-0.1227,-0.1231,-0.1293,-0.1296,-0.1299,-0.1328,-0.1294,-0.1327,-0.1344,-0.1325,-0.1346,-0.1347,-0.1352,-0.1353,-0.1356,-0.1353,-0.1353,-0.1366,-0.1366,-0.1366,-0.1366,0,0,0,0,0,0,0,-0.1224,-0.123,-0.1288,-0.1294,-0.1297,-0.1296,-0.1301,-0.13,-0.1331,-0.1327,-0.1329,-0.1338,-0.1353,-0.1356,-0.1357,-0.1354,-0.1366,-0.1366,-0.1366,-0.1366,-0.1406,-0.1407,0,0,0,0,0,0,-0.1225,-0.1228,-0.1287,-0.1289,-0.1266,-0.1297,-0.1303,-0.1316,-0.1332,-0.1336,-0.1337,-0.1339,-0.1355,-0.1356,-0.1357,-0.1413,-0.1366,-0.1366,-0.1366,-0.1405,-0.1407,-0.1408,0,0,0,0,0,0,-0.1223,-0.123,-0.1285,-0.1261,-0.1268,-0.1298,-0.1311,-0.1316,-0.1345,-0.1341,-0.1344,-0.1364,-0.1356,-0.1357,-0.1382,-0.1411,-0.1366,-0.1366,-0.1404,-0.1406,-0.1407,-0.1479,0,0,0,0,0,0,-0.1221,-0.1229,-0.1247,-0.1261,-0.127,-0.1313,-0.1311,-0.1316,-0.1348,-0.1352,-0.1365,-0.1366,-0.1356,-0.1382,-0.1382,-0.1411,-0.1366,-0.1403,-0.1405,-0.1407,-0.1475,-0.1483,-0.1489,0,0,0,0,0,-0.1218,-0.1237,-0.1248,-0.1255,-0.129,-0.1314,-0.1319,-0.1339,-0.1349,-0.1367,-0.1378,-0.1367,-0.1394,-0.1383,-0.1382,-0.1412,-0.1402,-0.1404,-0.1407,-0.1472,-0.1481,-0.1489,0,0,0,0,0,0,-0.1211,-0.1242,-0.1254,-0.1283,-0.1306,-0.1321,-0.1341,-0.1354,-0.1376,-0.1385,-0.1379,-0.1381,-0.1412,-0.14,-0.1388,-0.1428,-0.1396,-0.1398,-0.1446,-0.1454,-0.1461,-0.1468,-0.1366,0,0,0,0,0,-0.1217,-0.1241,-0.1268,-0.1292,-0.1307,-0.1328,-0.1344,-0.136,-0.1378,-0.139,-0.14,-0.1408,-0.1416,-0.1428,-0.1428,-0.1452,-0.145,-0.147,-0.1477,-0.1483,-0.1488,-0.1508,-0.1517,-0.1415,-0.1415,-0.1415,0,0,-0.1221,-0.1242,-0.1256,-0.1293,-0.1312,-0.1342,-0.134,-0.1374,-0.1405,-0.1386,-0.1434,-0.1432,-0.1426,-0.1453,-0.1466,-0.1453,-0.1514,-0.1486,-0.1491,-0.1493,-0.1511,-0.1521,-0.153,-0.1417,-0.1417,-0.1416,0,0,-0.1233,-0.1261,-0.1285,-0.1311,-0.135,-0.1365,-0.1382,-0.1413,-0.1438,-0.1473,-0.147,-0.1491,-0.1503,-0.1511,-0.1512,-0.1557,-0.1546,-0.1558,-0.1605,-0.1625,-0.1634,-0.1642,-0.1667,-0.1676,-0.1566,-0.1567,-0.1567,0,-0.1238,-0.1273,-0.1295,-0.1327,-0.1356,-0.138,-0.1415,-0.1441,-0.1479,-0.1505,-0.1499,-0.1537,-0.153,-0.1569,-0.1582,-0.1574,-0.1584,-0.1576,-0.1636,-0.1643,-0.1649,-0.1673,-0.1683,-0.157,-0.157,-0.1569,-0.1569,0,-0.1262,-0.1303,-0.1321,-0.1371,-0.1403,-0.1438,-0.1478,-0.1518,-0.1546,-0.1569,-0.162,-0.1616,-0.1638,-0.1642,-0.1624,-0.1672,-0.1664,-0.1639,-0.1617,-0.1664,-0.1686,-0.1695,-0.1576,-0.1574,-0.1573,-0.1572,0,0,-0.1241,-0.1323,-0.1332,-0.137,-0.1434,-0.1462,-0.1523,-0.1581,-0.163,-0.1662,-0.1721,-0.1731,-0.1734,-0.1735,-0.1726,-0.1743,-0.1796,-0.1715,-0.1714,-0.1745,-0.1852,-0.1728,-0.1725,-0.1784,-0.1785,-0.1786,-0.1854,0,-0.1257,-0.1323,-0.1362,-0.1434,-0.1473,-0.1526,-0.1583,-0.1641,-0.1685,-0.1747,-0.1765,-0.1807,-0.1769,-0.1787,-0.18,-0.1793,-0.1819,-0.178,-0.1797,-0.1797,-0.1684,-0.173,-0.1791,-0.186,-0.1862,-0.1864,-0.1865,0,-0.1261,-0.1311,-0.1381,-0.1479,-0.1503,-0.1553,-0.1652,-0.1705,-0.1791,-0.1828,-0.1875,-0.1887,-0.1926,-0.1882,-0.191,-0.1888,-0.1878,-0.187,-0.1872,-0.1734,-0.1687,-0.1798,-0.1879,-0.1878,-0.1877,-0.1876,-0.1875,0,-0.1225,-0.1323,-0.1383,-0.1415,-0.1525,-0.1577,-0.1639,-0.1731,-0.1785,-0.1884,-0.1927,-0.1974,-0.2,-0.2,-0.1971,-0.1951,-0.1996,-0.1965,-0.1853,-0.1846,-0.1906,-0.1897,-0.1993,-0.1993,-0.1993,-0.1992,-0.1992,0,-0.1212,-0.1264,-0.1377,-0.1409,-0.1489,-0.1574,-0.1664,-0.1732,-0.1837,-0.1896,-0.1962,-0.1998,-0.2027,-0.2046,-0.2016,-0.1954,-0.2032,-0.1869,-0.1853,-0.1936,-0.193,-0.1913,-0.1903,-0.1995,-0.1994,-0.1994,-0.1993,0,-0.1155,-0.123,-0.1304,-0.1429,-0.1471,-0.1528,-0.1663,-0.1721,-0.1832,-0.1913,-0.1946,-0.2033,-0.2044,-0.2063,-0.2069,-0.1995,-0.1963,-0.1925,-0.2035,-0.2022,-0.1795,-0.1788,-0.1813,-0.1809,-0.1806,-0.1803,-0.1801,0,-0.1129,-0.1162,-0.1293,-0.1334,-0.1394,-0.1494,-0.1557,-0.1694,-0.175,-0.1904,-0.1924,-0.1998,-0.2029,-0.1951,-0.1975,-0.194,-0.1902,-0.1895,-0.1821,-0.1795,-0.1777,-0.1775,-0.1772,-0.1796,-0.1795,-0.1794,-0.1793,0,-0.1069,-0.1123,-0.1178,-0.1261,-0.1336,-0.1416,-0.1517,-0.1551,-0.1702,-0.1821,-0.1853,-0.1864,-0.1882,-0.1866,-0.1856,-0.1821,-0.1902,-0.186,-0.1866,-0.1796,-0.1774,-0.1759,-0.176,-0.1782,-0.1784,-0.1785,-0.1785,0,-0.1014,-0.1032,-0.1102,-0.1166,-0.1254,-0.1305,-0.1381,-0.1451,-0.1526,-0.17,-0.1702,-0.1779,-0.1864,-0.1805,-0.1791,-0.1753,-0.1713,-0.1654,-0.1669,-0.1682,-0.1601,-0.1551,-0.1483,0,0,0,0,0,-0.0948,-0.0953,-0.1003,-0.1062,-0.1146,-0.1195,-0.1335,-0.1416,-0.1564,-0.1545,-0.1623,-0.1631,-0.1623,-0.1659,-0.1585,-0.1714,-0.1711,-0.1621,-0.165,-0.1719,-0.1732,-0.1644,0,0,0,0,0,0,-0.09,-0.0935,-0.0957,-0.0956,-0.0975,-0.1055,-0.114,-0.125,-0.1252,-0.1405,-0.14,-0.1517,-0.1518,-0.162,-0.1538,-0.1549,-0.1534,-0.1674,-0.167,-0.1712,-0.1724,-0.1734,-0.1648,0,0,0,0,0]},{"header":{"parameterUnit":"m.s-1","parameterCategory":2,"la1":30.2991,"la2":30.254,"lo1":-89.0895,"lo2":-89.0444,"dy":0.0017,"dx":0.0017,"nx":28,"ny":28,"refTime":"2024-10-18T09:00:00:Z","depth":"4","parameterNumber":3,"parameterNumberName":"V-component_of_CURRENTS"},"data":[0,0,0,0,0,0,0,0,0,0,0,0,0,0,0,0,0,0,0,0,0,0,0,0,0,0,0,0,0,0,0,0,0,0,0,0,0,0,0,0,0,0,0,0,0,0,0,0,0,0,0,0,0,0,0,0,0,0,-0.012,-0.0119,0,-0.006,-0.006,-0.0059,-0.0027,-0.0027,-0.0027,-0.0027,0.0037,0.0038,0.004,0,0,0,0,0,0,0,0,0,0,0,0,0,-0.0165,-0.0164,-0.012,-0.0119,-0.0118,-0.006,-0.006,-0.0059,-0.0027,-0.0027,-0.0027,-0.0027,0.0036,0.0038,0.004,0,0,0,0,0,0,0,0,0,0,0,0,0,-0.0129,-0.0164,-0.012,-0.0096,-0.0093,-0.0061,-0.006,-0.0059,-0.0027,-0.0027,-0.0027,-0.0027,0.0036,0.0038,0.0041,0.0055,0,0,0.0048,0.0049,0,0,0,0,0,0,0,0,-0.0131,-0.0128,-0.01,-0.0097,-0.0094,-0.0051,-0.0052,-0.002,-0.0027,-0.0052,-0.0027,-0.0027,0.0008,0.0012,0.0024,0.0058,0.006,0.0048,0.005,0.0051,0.0052,0,0,0,0,0,0,0,-0.0134,-0.013,-0.0096,-0.0099,-0.0096,-0.0074,-0.0069,-0.0046,-0.0023,-0.005,-0.0048,-0.0041,0.0009,0.0021,0.0025,0.0061,0.0048,0.0051,0.0052,0.0053,0.0125,0.0126,0,0,0,0,0,0,-0.0144,-0.0132,-0.0098,-0.0094,-0.0113,-0.0073,-0.0068,-0.0065,-0.0023,-0.0017,-0.0041,-0.004,0.0017,0.0022,0.0028,0.0054,0.0051,0.0053,0.0055,0.0125,0.0125,0.0126,0,0,0,0,0,0,-0.0145,-0.0141,-0.01,-0.0112,-0.0105,-0.0073,-0.007,-0.0064,-0.0053,-0.0017,-0.001,-0.0036,0.0017,0.0024,0.0052,0.0057,0.0054,0.0057,0.0124,0.0125,0.0126,0.0103,0,0,0,0,0,0,-0.0147,-0.0142,-0.0146,-0.0113,-0.0105,-0.0085,-0.007,-0.0063,-0.0049,-0.0046,-0.001,-0.0004,0.0018,0.0048,0.0054,0.006,0.0059,0.0124,0.0125,0.0125,0.0103,0.0102,0.0102,0,0,0,0,0,-0.0149,-0.0154,-0.0146,-0.0142,-0.011,-0.0085,-0.0079,-0.0055,-0.0049,-0.0045,-0.0017,-0.0005,0.0058,0.005,0.0058,0.0064,0.0124,0.0124,0.0125,0.0103,0.0102,0.0102,0,0,0,0,0,0,-0.0176,-0.015,-0.0141,-0.0139,-0.0116,-0.008,-0.0076,-0.0059,-0.0033,-0.0033,0.0001,0.0009,0.0034,0.0053,0.0045,0.0088,0.0092,0.0095,0.0073,0.0072,0.0072,0.0059,0.0061,0,0,0,0,0,-0.0184,-0.0182,-0.0151,-0.015,-0.0141,-0.0109,-0.0097,-0.0081,-0.0053,-0.0042,-0.0014,0.0016,0.0044,0.0061,0.0085,0.011,0.0132,0.0119,0.0119,0.0118,0.0113,0.0154,0.0157,0.0129,0.0129,0.0129,0,0,-0.0196,-0.0181,-0.0181,-0.0156,-0.0138,-0.0127,-0.0102,-0.0088,-0.0076,-0.0039,-0.0017,0.0012,0.0049,0.0077,0.009,0.0094,0.0139,0.012,0.0119,0.0114,0.0156,0.0158,0.0161,0.013,0.013,0.0129,0,0,-0.0216,-0.0205,-0.0208,-0.0191,-0.0166,-0.0144,-0.0142,-0.0106,-0.0089,-0.0062,-0.0032,0.0003,0.0041,0.0075,0.0096,0.0109,0.0132,0.0115,0.0106,0.0146,0.0149,0.0151,0.0184,0.019,0.0118,0.0118,0.0118,0,-0.0232,-0.0233,-0.0205,-0.0202,-0.0195,-0.0155,-0.0157,-0.0129,-0.0088,-0.0073,-0.0061,0.0011,0.0042,0.0085,0.0091,0.0108,0.0129,0.0104,0.0145,0.0148,0.0151,0.0184,0.0191,0.0117,0.0117,0.0117,0.0117,0,-0.0249,-0.0252,-0.0253,-0.0238,-0.0224,-0.022,-0.018,-0.0161,-0.0136,-0.0104,-0.006,-0.0007,0.0035,0.0056,0.0077,0.0116,0.0125,0.0136,0.0143,0.0152,0.0187,0.0194,0.0116,0.0116,0.0116,0.0117,0,0,-0.0284,-0.0271,-0.0273,-0.0281,-0.0247,-0.0242,-0.0217,-0.0186,-0.0175,-0.0119,-0.0096,-0.0029,0.0003,0.0028,0.007,0.0111,0.0156,0.0128,0.0131,0.0155,0.0239,0.0222,0.0229,0.0172,0.0173,0.0173,0.0255,0,-0.031,-0.0327,-0.0305,-0.0321,-0.0329,-0.0288,-0.0274,-0.0237,-0.0196,-0.0161,-0.0087,-0.0052,-0.0007,0.0012,0.0063,0.013,0.0173,0.0132,0.0231,0.0234,0.0214,0.0236,0.0177,0.0261,0.0262,0.0264,0.0265,0,-0.0332,-0.0346,-0.0371,-0.0377,-0.0376,-0.0376,-0.0354,-0.0333,-0.0263,-0.023,-0.0165,-0.0108,-0.0028,-0.0001,0.0128,0.0099,0.0162,0.0217,0.0222,0.0217,0.0231,0.0251,0.0278,0.0277,0.0276,0.0275,0.0274,0,-0.0379,-0.0392,-0.0422,-0.0422,-0.0415,-0.042,-0.0412,-0.0359,-0.0346,-0.0271,-0.0249,-0.0144,-0.0095,0.0006,0.0133,0.0127,0.0269,0.0276,0.0324,0.0324,0.0323,0.032,0.0358,0.0358,0.0358,0.0357,0.0357,0,-0.0413,-0.0438,-0.0453,-0.047,-0.0512,-0.048,-0.0498,-0.0467,-0.0419,-0.0402,-0.0294,-0.0249,-0.0093,0.0013,0.0122,0.0249,0.0266,0.0325,0.0346,0.0312,0.0307,0.0329,0.0324,0.0361,0.036,0.0359,0.0359,0,-0.0451,-0.0457,-0.0501,-0.0522,-0.0537,-0.0566,-0.0573,-0.0577,-0.0518,-0.0489,-0.0468,-0.0327,-0.0184,-0.0025,0.0147,0.0226,0.0353,0.0391,0.0345,0.0361,0.0382,0.0376,0.0447,0.0447,0.0447,0.0447,0.0447,0,-0.0468,-0.0496,-0.0555,-0.0596,-0.0611,-0.0648,-0.0673,-0.0637,-0.0631,-0.0531,-0.0519,-0.0374,-0.0266,-0.0027,0.0136,0.0343,0.0366,0.0425,0.0404,0.0379,0.0392,0.0386,0.0379,0.0447,0.0447,0.0447,0.0447,0,-0.0509,-0.0534,-0.0573,-0.0661,-0.071,-0.0757,-0.0782,-0.0782,-0.072,-0.0675,-0.0554,-0.0403,-0.0241,-0.004,0.0123,0.0271,0.0385,0.0427,0.0427,0.0408,0.038,0.0392,0.0386,0.0448,0.0448,0.0448,0.0448,0,-0.0539,-0.0583,-0.0644,-0.0716,-0.079,-0.0838,-0.0841,-0.0817,-0.0797,-0.0673,-0.0635,-0.0427,-0.0303,-0.0077,0.0078,0.0221,0.0248,0.028,0.0288,0.029,0.022,0.016,0.018,0,0,0,0,0,-0.0563,-0.0617,-0.0694,-0.0771,-0.0844,-0.0882,-0.0903,-0.0885,-0.0825,-0.0756,-0.069,-0.053,-0.0269,-0.0144,-0.0007,0.0063,0.0259,0.0226,0.0295,0.045,0.0449,0.0393,0,0,0,0,0,0,-0.0581,-0.0656,-0.0698,-0.0803,-0.086,-0.0931,-0.0944,-0.0901,-0.0848,-0.0764,-0.0625,-0.052,-0.0271,-0.0355,-0.0013,0.0035,0.0093,0.0358,0.0361,0.045,0.045,0.0449,0.0391,0,0,0,0,0]}]]